Weather History for Port Huron, MI

Change the Weather History Date:

Saturday, March 8, 2014

  Actual Average (KMTC) Record (KMTC)
Temperature  
Mean Temperature 24 °F -  
Max Temperature 37 °F 39 °F 68 °F (2002)
Min Temperature 8 °F 22 °F 0 °F (1986)
Degree Days  
Heating Degree Days 42    
Moisture  
Dew Point 19 °F    
Average Humidity 74    
Maximum Humidity 92    
Minimum Humidity 60    
Precipitation  
Precipitation 0.00 in - - ()
Sea Level Pressure  
Sea Level Pressure 30.05 in    
Wind  
Wind Speed 6 mph (North)    
Max Wind Speed 15 mph    
Max Gust Speed 20 mph    
Visibility 10 miles    
Events      
Averages and records for this station are not official NWS values.
T = Trace of Precipitation, MM = Missing Value Source: NWS Daily Summary

Daily Weather History Graph

Daily Weather History Graph

Search for Another Location

Airport:

Trip Planner

Search our weather history database for the weather conditions in past years. The results will help you decide how hot, cold, wet, or windy it might be!

Date:

Astronomy

Mar. 08, 2014 Rise Set
Actual Time 6:54 AM EST 6:28 PM EST
Civil Twilight 6:26 AM EST 6:56 PM EST
Nautical Twilight 5:53 AM EST 7:29 PM EST
Astronomical Twilight 5:20 AM EST 8:02 PM EST
Moon 11:25 AM EST (3/8) 1:34 AM EST (3/8)
Length of Visible Light 12h 30m
Length of Day
11h 33m
First Quarter, 51% of the Moon is Illuminated
Mar 8
First Quarter
Mar 16
Full
Mar 23
Last Quarter
Mar 30
New
Apr 7
First Quarter

Hourly Weather History & Observations

Time (EST) Temp. Windchill Dew Point Humidity Pressure Visibility Wind Dir Wind Speed Gust Speed Precip Events Conditions
12:19 AM 35.6 °F 31.7 °F 24.8 °F 65% 29.89 in 10.0 mi SW 4.6 mph - N/A   Overcast
12:39 AM 35.6 °F - 24.8 °F 65% 29.90 in 10.0 mi Calm Calm - N/A   Overcast
12:59 AM 35.6 °F 32.8 °F 24.8 °F 65% 29.90 in 10.0 mi SSW 3.5 mph - N/A   Overcast
1:19 AM 35.6 °F - 24.8 °F 65% 29.89 in 10.0 mi Calm Calm - N/A   Overcast
1:39 AM 37.4 °F - 24.8 °F 60% 29.89 in 10.0 mi Calm Calm - N/A   Overcast
1:59 AM 37.4 °F - 24.8 °F 60% 29.89 in 10.0 mi Calm Calm - N/A   Overcast
2:19 AM 37.4 °F 34.9 °F 24.8 °F 60% 29.89 in 10.0 mi West 3.5 mph - N/A   Overcast
2:39 AM 37.4 °F 34.9 °F 24.8 °F 60% 29.89 in 10.0 mi West 3.5 mph - N/A   Overcast
2:59 AM 37.4 °F 33.8 °F 24.8 °F 60% 29.89 in 10.0 mi West 4.6 mph - N/A   Overcast
3:19 AM 37.4 °F 31.4 °F 24.8 °F 60% 29.90 in 10.0 mi North 8.1 mph - N/A   Overcast
3:39 AM 32.0 °F 23.6 °F 26.6 °F 80% 29.92 in 7.0 mi North 10.4 mph 16.1 mph N/A   Overcast
3:59 AM 32.0 °F 22.5 °F 26.6 °F 80% 29.93 in 7.0 mi NNE 12.7 mph 17.3 mph N/A   Overcast
4:19 AM 32.0 °F 23.6 °F 28.4 °F 87% 29.94 in 5.0 mi North 10.4 mph - N/A   Overcast
4:39 AM 32.0 °F 26.4 °F 26.6 °F 80% 29.94 in 5.0 mi North 5.8 mph 18.4 mph N/A   Overcast
4:59 AM 30.2 °F 21.3 °F 26.6 °F 86% 29.96 in 7.0 mi North 10.4 mph - N/A   Overcast
5:19 AM 30.2 °F 21.9 °F 23.0 °F 75% 29.96 in 10.0 mi North 9.2 mph 16.1 mph N/A   Overcast
5:39 AM 30.2 °F 21.9 °F 23.0 °F 75% 29.97 in 10.0 mi North 9.2 mph 16.1 mph N/A   Overcast
5:59 AM 30.2 °F 24.3 °F 23.0 °F 75% 29.97 in 10.0 mi North 5.8 mph - N/A   Overcast
6:19 AM 30.2 °F 21.9 °F 23.0 °F 75% 29.98 in 10.0 mi NNW 9.2 mph - N/A   Overcast
6:39 AM 30.2 °F 21.3 °F 23.0 °F 75% 29.99 in 10.0 mi North 10.4 mph - N/A   Overcast
6:59 AM 28.4 °F 20.4 °F 23.0 °F 80% 30.00 in 10.0 mi North 8.1 mph - N/A   Overcast
7:19 AM 28.4 °F 19.7 °F 23.0 °F 80% 30.01 in 10.0 mi North 9.2 mph - N/A   Overcast
7:39 AM 28.4 °F 21.2 °F 23.0 °F 80% 30.02 in 10.0 mi NNW 6.9 mph - N/A   Overcast
7:59 AM 28.4 °F 18.0 °F 23.0 °F 80% 30.04 in 10.0 mi North 12.7 mph 18.4 mph N/A   Overcast
8:19 AM 28.4 °F 18.5 °F 21.2 °F 74% 30.04 in 10.0 mi North 11.5 mph 17.3 mph N/A   Overcast
8:39 AM 28.4 °F 19.1 °F 21.2 °F 74% 30.05 in 10.0 mi North 10.4 mph 19.6 mph N/A   Overcast
8:59 AM 28.4 °F 19.7 °F 21.2 °F 74% 30.06 in 10.0 mi North 9.2 mph - N/A   Overcast
9:19 AM 28.4 °F 18.5 °F 21.2 °F 74% 30.07 in 10.0 mi North 11.5 mph 19.6 mph N/A   Overcast
9:39 AM 28.4 °F 19.1 °F 21.2 °F 74% 30.07 in 10.0 mi NNW 10.4 mph 16.1 mph N/A   Overcast
9:59 AM 28.4 °F 19.7 °F 21.2 °F 74% 30.08 in 10.0 mi North 9.2 mph 17.3 mph N/A   Overcast
10:19 AM 28.4 °F 20.4 °F 21.2 °F 74% 30.08 in 10.0 mi North 8.1 mph - N/A   Overcast
10:39 AM 28.4 °F 19.1 °F 21.2 °F 74% 30.09 in 10.0 mi North 10.4 mph 16.1 mph N/A   Overcast
10:59 AM 28.4 °F 18.5 °F 21.2 °F 74% 30.09 in 10.0 mi North 11.5 mph 18.4 mph N/A   Overcast
11:19 AM 26.6 °F 17.5 °F 21.2 °F 80% 30.10 in 10.0 mi North 9.2 mph 16.1 mph N/A   Overcast
11:39 AM 26.6 °F 15.7 °F 19.4 °F 74% 30.11 in 10.0 mi North 12.7 mph 18.4 mph N/A   Overcast
11:59 AM 26.6 °F 15.7 °F 19.4 °F 74% 30.11 in 10.0 mi North 12.7 mph 19.6 mph N/A   Overcast
12:19 PM 26.6 °F 15.2 °F 19.4 °F 74% 30.11 in 10.0 mi North 13.8 mph - N/A   Overcast
12:39 PM 26.6 °F 14.7 °F 19.4 °F 74% 30.11 in 10.0 mi North 15.0 mph - N/A   Overcast
12:59 PM 26.6 °F 16.8 °F 17.6 °F 69% 30.11 in 10.0 mi North 10.4 mph 16.1 mph N/A   Overcast
1:19 PM 26.6 °F 16.8 °F 17.6 °F 69% 30.09 in 10.0 mi North 10.4 mph 19.6 mph N/A   Overcast
1:39 PM 26.6 °F 15.2 °F 17.6 °F 69% 30.09 in 10.0 mi North 13.8 mph 18.4 mph N/A   Overcast
1:59 PM 26.6 °F 16.8 °F 17.6 °F 69% 30.09 in 10.0 mi NNW 10.4 mph - N/A   Overcast
2:19 PM 26.6 °F 16.8 °F 17.6 °F 69% 30.08 in 10.0 mi North 10.4 mph 17.3 mph N/A   Mostly Cloudy
2:39 PM 28.4 °F 19.7 °F 17.6 °F 64% 30.08 in 10.0 mi North 9.2 mph - N/A   Mostly Cloudy
2:59 PM 28.4 °F 17.5 °F 17.6 °F 64% 30.08 in 10.0 mi North 13.8 mph 18.4 mph N/A   Mostly Cloudy
3:19 PM 28.4 °F 18.5 °F 17.6 °F 64% 30.09 in 10.0 mi North 11.5 mph 17.3 mph N/A   Mostly Cloudy
3:39 PM 26.6 °F 17.5 °F 17.6 °F 69% 30.09 in 10.0 mi North 9.2 mph - N/A   Overcast
3:59 PM 26.6 °F 17.5 °F 17.6 °F 69% 30.09 in 10.0 mi North 9.2 mph - N/A   Overcast
4:19 PM 26.6 °F 16.2 °F 17.6 °F 69% 30.10 in 10.0 mi North 11.5 mph - N/A   Overcast
4:39 PM 26.6 °F 17.5 °F 15.8 °F 64% 30.10 in 10.0 mi North 9.2 mph - N/A   Overcast
4:59 PM 26.6 °F 16.8 °F 15.8 °F 64% 30.10 in 10.0 mi North 10.4 mph 17.3 mph N/A   Overcast
5:19 PM 26.6 °F 20.0 °F 15.8 °F 64% 30.11 in 10.0 mi North 5.8 mph - N/A   Overcast
5:39 PM 24.8 °F 15.3 °F 15.8 °F 69% 30.11 in 10.0 mi North 9.2 mph - N/A   Overcast
5:59 PM 24.8 °F 17.9 °F 15.8 °F 69% 30.12 in 10.0 mi NNW 5.8 mph - N/A   Overcast
6:19 PM 24.8 °F 16.9 °F 15.8 °F 69% 30.12 in 10.0 mi NW 6.9 mph - N/A   Overcast
6:39 PM 24.8 °F 19.1 °F 15.8 °F 69% 30.13 in 10.0 mi NNW 4.6 mph - N/A   Scattered Clouds
6:59 PM 23.0 °F 17.0 °F 14.0 °F 68% 30.13 in 10.0 mi North 4.6 mph - N/A   Clear
7:19 PM 23.0 °F - 14.0 °F 68% 30.14 in 10.0 mi Calm Calm - N/A   Clear
7:39 PM 23.0 °F - 14.0 °F 68% 30.14 in 10.0 mi Calm Calm - N/A   Clear
7:59 PM 21.2 °F - 14.0 °F 74% 30.14 in 10.0 mi Calm Calm - N/A   Clear
8:19 PM 17.6 °F - 12.2 °F 79% 30.14 in 10.0 mi Calm Calm - N/A   Clear
8:39 PM 15.8 °F - 12.2 °F 86% 30.14 in 10.0 mi Calm Calm - N/A   Clear
8:59 PM 15.8 °F - 10.4 °F 79% 30.15 in 10.0 mi Calm Calm - N/A   Clear
9:19 PM 15.8 °F - 12.2 °F 86% 30.15 in 10.0 mi Calm Calm - N/A   Clear
9:39 PM 14.0 °F - 10.4 °F 86% 30.15 in 10.0 mi Calm Calm - N/A   Clear
9:59 PM 12.2 °F - 10.4 °F 92% 30.16 in 10.0 mi Calm Calm - N/A   Clear
10:19 PM 12.2 °F - 10.4 °F 92% 30.16 in 10.0 mi Calm Calm - N/A   Clear
10:39 PM 12.2 °F - 10.4 °F 92% 30.16 in 10.0 mi Calm Calm - N/A   Clear
10:59 PM 12.2 °F - 10.4 °F 92% 30.16 in 10.0 mi Calm Calm - N/A   Clear
11:19 PM 10.4 °F - 8.6 °F 92% 30.15 in 5.0 mi Calm Calm - N/A   Clear
11:39 PM 10.4 °F - 6.8 °F 85% 30.15 in 7.0 mi Calm Calm - N/A   Clear
11:59 PM 8.6 °F - 5.0 °F 85% 30.15 in 7.0 mi Calm Calm - N/A   Clear